Precipitable_Water
0.69 0.65 0.61 0.59 0.59 0.60 0.59 0.58 0.56 0.53 0.51 0.53 0.56 0.65 0.66 0.62 0.58 0.54 0.48 0.52 0.41 0.32 0.29 0.32 0.36 0.37 0.36 0.32 0.28 0.42 0.40 0.52 0.49 0.43 0.41 0.44 0.42 0.51 0.45 0.49 0.49 0.40 0.39 0.39 0.42 0.41 0.39 0.63 0.59 0.47 0.63 0.61 0.57 0.56
0.69 0.68 0.66 0.62 0.58 0.59 0.60 0.58 0.57 0.58 0.55 0.54 0.55 0.61 0.68 0.63 0.62 0.57 0.44 0.52 0.52 0.37 0.34 0.39 0.36 0.40 0.46 0.45 0.35 0.33 0.39 0.56 0.52 0.48 0.52 0.54 0.45 0.48 0.46 0.41 0.53 0.42 0.49 0.49 0.52 0.54 0.70 0.68 0.66 0.67 0.65 0.60 0.59 0.62
0.68 0.69 0.70 0.69 0.66 0.63 0.62 0.60 0.59 0.60 0.57 0.54 0.54 0.58 0.64 0.65 0.66 0.57 0.49 0.51 0.46 0.36 0.33 0.31 0.34 0.43 0.49 0.44 0.45 0.36 0.37 0.50 0.52 0.59 0.53 0.52 0.50 0.57 0.42 0.43 0.52 0.55 0.59 0.49 0.51 0.59 0.58 0.59 0.62 0.64 0.63 0.59 0.59 0.62
0.67 0.68 0.68 0.69 0.70 0.68 0.67 0.64 0.62 0.61 0.59 0.54 0.54 0.55 0.61 0.63 0.65 0.59 0.51 0.54 0.47 0.37 0.24 0.27 0.38 0.33 0.40 0.44 0.43 0.47 0.45 0.50 0.53 0.56 0.48 0.46 0.46 0.54 0.53 0.56 0.51 0.57 0.58 0.51 0.49 0.55 0.53 0.58 0.60 0.59 0.61 0.64 0.64 0.69
0.64 0.66 0.69 0.70 0.70 0.71 0.71 0.70 0.67 0.64 0.63 0.56 0.56 0.55 0.60 0.63 0.62 0.58 0.56 0.56 0.55 0.38 0.26 0.25 0.31 0.37 0.40 0.41 0.40 0.41 0.43 0.41 0.41 0.40 0.43 0.45 0.48 0.48 0.53 0.51 0.47 0.58 0.55 0.50 0.46 0.59 0.56 0.57 0.58 0.63 0.61 0.64 0.68 0.74
0.70 0.70 0.68 0.68 0.68 0.71 0.74 0.73 0.70 0.67 0.68 0.60 0.58 0.57 0.61 0.64 0.60 0.53 0.43 0.55 0.60 0.53 0.34 0.24 0.33 0.34 0.39 0.41 0.36 0.35 0.35 0.34 0.37 0.35 0.34 0.40 0.47 0.43 0.37 0.35 0.50 0.60 0.58 0.58 0.53 0.56 0.56 0.57 0.60 0.64 0.61 0.68 0.71 0.76
0.69 0.70 0.72 0.72 0.70 0.70 0.71 0.72 0.71 0.69 0.71 0.64 0.61 0.60 0.64 0.65 0.60 0.46 0.43 0.56 0.60 0.56 0.37 0.25 0.24 0.37 0.41 0.40 0.36 0.35 0.35 0.29 0.29 0.29 0.25 0.26 0.31 0.31 0.26 0.25 0.36 0.38 0.49 0.57 0.57 0.54 0.51 0.55 0.54 0.61 0.61 0.67 0.76 0.78
0.70 0.70 0.70 0.71 0.72 0.72 0.69 0.72 0.73 0.70 0.70 0.66 0.64 0.65 0.68 0.67 0.60 0.48 0.54 0.55 0.54 0.44 0.40 0.26 0.24 0.29 0.39 0.33 0.36 0.40 0.30 0.30 0.29 0.25 0.27 0.21 0.23 0.24 0.17 0.22 0.26 0.26 0.25 0.26 0.27 0.32 0.34 0.40 0.48 0.53 0.58 0.62 0.65 0.71
0.72 0.75 0.71 0.71 0.72 0.72 0.71 0.73 0.74 0.70 0.69 0.66 0.66 0.69 0.68 0.58 0.48 0.49 0.56 0.55 0.55 0.45 0.32 0.28 0.23 0.23 0.31 0.31 0.31 0.34 0.40 0.29 0.34 0.23 0.24 0.26 0.23 0.21 0.22 0.23 0.24 0.24 0.25 0.27 0.30 0.31 0.34 0.34 0.33 0.34 0.37 0.51 0.57 0.62
0.73 0.73 0.71 0.71 0.72 0.72 0.75 0.74 0.75 0.72 0.67 0.68 0.67 0.59 0.47 0.52 0.59 0.58 0.52 0.42 0.40 0.40 0.36 0.27 0.29 0.22 0.24 0.27 0.24 0.23 0.24 0.29 0.30 0.35 0.35 0.24 0.20 0.26 0.30 0.33 0.33 0.34 0.38 0.37 0.32 0.32 0.35 0.36 0.38 0.40 0.37 0.34 0.47 0.56
0.73 0.72 0.71 0.71 0.73 0.72 0.72 0.73 0.74 0.70 0.68 0.63 0.53 0.49 0.60 0.62 0.53 0.44 0.35 0.31 0.32 0.27 0.30 0.30 0.29 0.27 0.32 0.25 0.27 0.28 0.26 0.28 0.22 0.33 0.29 0.24 0.23 0.31 0.43 0.41 0.46 0.51 0.52 0.50 0.46 0.45 0.47 0.45 0.41 0.42 0.44 0.42 0.45 0.48
0.69 0.70 0.71 0.72 0.71 0.71 0.70 0.72 0.71 0.62 0.60 0.61 0.63 0.66 0.63 0.53 0.41 0.33 0.28 0.31 0.28 0.25 0.29 0.30 0.35 0.36 0.37 0.38 0.32 0.34 0.27 0.27 0.19 0.35 0.27 0.20 0.33 0.48 0.49 0.50 0.50 0.49 0.47 0.45 0.44 0.40 0.43 0.46 0.51 0.50 0.50 0.51 0.58 0.70
0.67 0.68 0.69 0.67 0.69 0.69 0.70 0.70 0.69 0.69 0.68 0.63 0.55 0.48 0.44 0.41 0.28 0.24 0.20 0.23 0.25 0.29 0.33 0.36 0.35 0.41 0.39 0.38 0.35 0.33 0.25 0.22 0.33 0.24 0.20 0.23 0.50 0.53 0.49 0.48 0.46 0.45 0.41 0.41 0.39 0.38 0.44 0.50 0.55 0.54 0.56 0.68 0.78 0.79
0.67 0.66 0.65 0.67 0.67 0.66 0.70 0.70 0.67 0.67 0.63 0.49 0.40 0.31 0.30 0.28 0.28 0.28 0.27 0.29 0.36 0.37 0.39 0.42 0.40 0.41 0.43 0.37 0.37 0.28 0.33 0.32 0.22 0.19 0.21 0.33 0.54 0.55 0.55 0.56 0.55 0.50 0.48 0.48 0.47 0.45 0.51 0.55 0.60 0.69 0.75 0.75 0.81 0.82
0.66 0.66 0.67 0.67 0.69 0.69 0.71 0.69 0.66 0.65 0.54 0.41 0.39 0.27 0.28 0.35 0.35 0.35 0.38 0.37 0.41 0.46 0.43 0.39 0.40 0.40 0.37 0.33 0.35 0.33 0.28 0.24 0.26 0.26 0.37 0.51 0.61 0.61 0.61 0.62 0.64 0.64 0.64 0.60 0.61 0.61 0.68 0.69 0.70 0.71 0.77 0.82 0.86 0.88
0.66 0.67 0.70 0.74 0.72 0.70 0.67 0.65 0.66 0.63 0.54 0.45 0.40 0.33 0.34 0.32 0.33 0.34 0.37 0.38 0.42 0.45 0.49 0.46 0.38 0.34 0.32 0.34 0.31 0.29 0.27 0.28 0.39 0.54 0.64 0.70 0.71 0.73 0.71 0.75 0.71 0.66 0.71 0.80 0.83 0.85 0.80 0.79 0.79 0.80 0.89 0.95 0.96 0.93
0.63 0.57 0.68 0.72 0.67 0.65 0.67 0.61 0.56 0.49 0.45 0.38 0.35 0.40 0.38 0.36 0.35 0.35 0.40 0.43 0.51 0.48 0.41 0.39 0.31 0.29 0.39 0.32 0.32 0.40 0.44 0.55 0.63 0.69 0.75 0.78 0.78 0.79 0.81 0.78 0.77 0.87 0.90 0.86 0.83 0.83 0.88 0.93 0.94 0.92 0.85 0.91 0.93 0.91
0.57 0.62 0.65 0.64 0.64 0.62 0.59 0.56 0.48 0.43 0.36 0.39 0.35 0.36 0.40 0.43 0.41 0.41 0.44 0.49 0.48 0.48 0.48 0.42 0.50 0.37 0.35 0.34 0.43 0.60 0.65 0.69 0.74 0.78 0.78 0.85 0.86 0.87 0.87 0.82 0.86 0.90 0.93 0.98 0.97 0.95 0.92 0.89 0.86 0.86 0.89 0.87 0.81 0.79
0.61 0.62 0.64 0.66 0.64 0.57 0.49 0.48 0.54 0.38 0.38 0.40 0.40 0.42 0.43 0.45 0.48 0.49 0.49 0.53 0.57 0.60 0.52 0.49 0.43 0.42 0.48 0.60 0.61 0.66 0.70 0.74 0.75 0.77 0.79 0.83 0.82 0.84 0.83 0.86 0.85 0.85 0.87 0.88 0.87 0.85 0.87 0.87 0.82 0.78 0.76 0.76 0.75 0.76
0.70 0.70 0.70 0.74 0.75 0.59 0.48 0.49 0.56 0.45 0.39 0.44 0.46 0.43 0.43 0.44 0.46 0.46 0.47 0.48 0.50 0.50 0.48 0.48 0.51 0.60 0.63 0.69 0.75 0.75 0.78 0.81 0.78 0.73 0.69 0.71 0.71 0.72 0.71 0.70 0.71 0.74 0.71 0.71 0.69 0.71 0.68 0.67 0.69 0.67 0.66 0.66 0.63 0.63
0.75 0.75 0.77 0.76 0.66 0.61 0.54 0.49 0.44 0.44 0.45 0.43 0.50 0.48 0.44 0.48 0.45 0.45 0.45 0.57 0.53 0.51 0.50 0.58 0.62 0.69 0.76 0.79 0.85 0.84 0.82 0.82 0.79 0.72 0.68 0.62 0.66 0.67 0.66 0.66 0.67 0.66 0.64 0.64 0.62 0.62 0.63 0.62 0.64 0.65 0.65 0.65 0.68 0.66
0.74 0.79 0.73 0.73 0.62 0.62 0.57 0.62 0.54 0.58 0.54 0.54 0.54 0.56 0.53 0.51 0.55 0.59 0.68 0.60 0.59 0.63 0.66 0.66 0.70 0.72 0.73 0.75 0.82 0.85 0.85 0.85 0.83 0.75 0.72 0.70 0.66 0.65 0.66 0.63 0.65 0.66 0.64 0.62 0.59 0.55 0.55 0.56 0.55 0.56 0.55 0.62 0.60 0.61
0.81 0.78 0.70 0.68 0.57 0.56 0.55 0.68 0.55 0.57 0.50 0.53 0.61 0.56 0.57 0.60 0.65 0.74 0.60 0.65 0.69 0.80 0.82 0.78 0.77 0.82 0.82 0.84 0.84 0.82 0.80 0.73 0.68 0.74 0.74 0.70 0.69 0.67 0.63 0.61 0.60 0.57 0.54 0.56 0.58 0.54 0.53 0.55 0.55 0.53 0.55 0.53 0.53 0.53
0.85 0.69 0.60 0.59 0.59 0.55 0.65 0.59 0.62 0.61 0.61 0.59 0.57 0.53 0.59 0.64 0.71 0.64 0.59 0.66 0.74 0.79 0.79 0.81 0.85 0.80 0.81 0.79 0.74 0.73 0.75 0.71 0.66 0.71 0.69 0.62 0.58 0.60 0.60 0.56 0.55 0.52 0.50 0.50 0.50 0.51 0.53 0.53 0.52 0.52 0.53 0.52 0.51 0.52
0.61 0.62 0.65 0.59 0.68 0.63 0.60 0.60 0.61 0.60 0.56 0.59 0.56 0.57 0.61 0.68 0.56 0.55 0.56 0.64 0.72 0.72 0.74 0.78 0.73 0.68 0.63 0.62 0.61 0.65 0.70 0.65 0.58 0.54 0.59 0.57 0.55 0.55 0.55 0.54 0.52 0.48 0.44 0.40 0.42 0.44 0.46 0.49 0.48 0.47 0.48 0.49 0.49 0.49
0.54 0.65 0.62 0.62 0.63 0.61 0.60 0.52 0.55 0.54 0.55 0.54 0.57 0.61 0.65 0.55 0.50 0.49 0.56 0.65 0.68 0.66 0.64 0.62 0.61 0.62 0.60 0.58 0.54 0.53 0.57 0.62 0.60 0.54 0.56 0.57 0.56 0.53 0.50 0.49 0.48 0.49 0.53 0.48 0.44 0.42 0.43 0.45 0.45 0.45 0.45 0.46 0.47 0.46
0.56 0.61 0.71 0.78 0.71 0.70 0.62 0.64 0.65 0.59 0.53 0.51 0.54 0.51 0.48 0.42 0.43 0.51 0.56 0.56 0.54 0.56 0.60 0.61 0.60 0.57 0.56 0.57 0.60 0.61 0.62 0.60 0.56 0.52 0.53 0.52 0.52 0.53 0.51 0.48 0.48 0.52 0.57 0.54 0.51 0.49 0.45 0.43 0.42 0.42 0.41 0.42 0.44 0.45
0.64 0.63 0.53 0.54 0.50 0.50 0.42 0.42 0.43 0.43 0.46 0.49 0.48 0.39 0.39 0.38 0.39 0.47 0.49 0.55 0.58 0.58 0.56 0.53 0.53 0.53 0.51 0.51 0.52 0.51 0.51 0.53 0.55 0.58 0.59 0.55 0.56 0.59 0.60 0.58 0.59 0.59 0.59 0.59 0.59 0.59 0.56 0.55 0.54 0.53 0.52 0.50 0.48 0.49
0.54 0.54 0.48 0.40 0.41 0.42 0.41 0.37 0.38 0.45 0.49 0.45 0.38 0.37 0.41 0.50 0.57 0.57 0.60 0.63 0.66 0.62 0.58 0.56 0.57 0.60 0.59 0.61 0.61 0.62 0.63 0.62 0.57 0.52 0.52 0.53 0.57 0.61 0.67 0.66 0.66 0.67 0.68 0.67 0.67 0.67 0.67 0.67 0.67 0.66 0.66 0.67 0.68 0.69
0.46 0.50 0.44 0.44 0.41 0.40 0.47 0.50 0.45 0.50 0.53 0.53 0.53 0.53 0.54 0.56 0.60 0.65 0.63 0.61 0.59 0.57 0.58 0.60 0.61 0.60 0.58 0.58 0.58 0.59 0.62 0.63 0.62 0.57 0.53 0.52 0.54 0.59 0.61 0.62 0.64 0.67 0.70 0.70 0.69 0.70 0.72 0.70 0.70 0.69 0.67 0.66 0.67 0.70
0.53 0.50 0.46 0.45 0.45 0.51 0.55 0.59 0.58 0.56 0.53 0.51 0.53 0.48 0.47 0.52 0.56 0.62 0.64 0.67 0.69 0.68 0.64 0.62 0.62 0.62 0.61 0.61 0.60 0.58 0.56 0.59 0.61 0.60 0.57 0.52 0.49 0.49 0.49 0.50 0.50 0.50 0.52 0.54 0.57 0.59 0.61 0.63 0.65 0.65 0.67 0.67 0.70 0.70
0.55 0.52 0.48 0.45 0.48 0.56 0.60 0.54 0.54 0.53 0.53 0.49 0.45 0.46 0.48 0.50 0.50 0.61 0.70 0.72 0.68 0.64 0.64 0.63 0.61 0.61 0.65 0.64 0.62 0.61 0.58 0.54 0.50 0.49 0.49 0.50 0.51 0.53 0.53 0.56 0.56 0.56 0.55 0.53 0.52 0.49 0.47 0.47 0.47 0.49 0.51 0.54 0.56 0.57
0.54 0.55 0.56 0.53 0.51 0.51 0.55 0.54 0.52 0.51 0.53 0.48 0.47 0.50 0.51 0.50 0.51 0.64 0.76 0.76 0.70 0.65 0.62 0.62 0.62 0.62 0.61 0.58 0.55 0.56 0.52 0.50 0.50 0.50 0.56 0.55 0.54 0.53 0.51 0.49 0.47 0.45 0.44 0.43 0.46 0.48 0.49 0.52 0.52 0.51 0.53 0.54 0.57 0.59
Wind_Speed
30 29 28 27 26 25 25 24 23 22 20 19 18 18 16 15 14 13 14 13 13 15 15 16 17 18 18 18 18 16 19 19 20 20 20 19 21 18 21 18 19 21 21 22 22 22 23 17 17 22 17 18 18 19
29 28 27 26 25 25 24 23 23 22 21 20 18 17 17 17 15 14 15 14 14 16 15 16 18 19 20 19 18 18 18 17 18 20 19 19 19 19 19 20 19 20 19 18 19 15 16 17 19 21 22 24 25 26
28 27 27 26 25 24 24 23 22 22 21 20 19 18 17 17 17 15 15 14 15 15 16 16 15 14 16 20 23 19 19 19 18 19 19 20 21 20 22 22 19 19 19 20 20 19 20 22 22 24 26 28 28 28
27 27 26 26 25 25 24 23 22 21 21 20 19 18 17 16 16 16 16 15 15 15 15 14 15 15 15 16 20 22 20 20 20 20 20 20 20 20 20 20 21 18 19 22 24 23 24 22 22 23 24 25 25 24
28 27 27 26 26 25 24 23 22 22 21 20 19 18 17 16 16 15 16 15 14 15 14 14 15 14 13 15 17 19 19 20 20 20 21 21 21 21 22 22 24 22 23 23 21 20 21 22 23 24 23 23 21 20
26 27 27 27 27 26 25 24 23 22 22 20 19 18 17 16 16 15 15 15 15 14 16 15 14 14 14 15 17 17 18 18 19 19 20 21 21 21 22 23 22 21 22 22 22 24 24 25 25 22 22 22 22 21
22 23 24 26 25 26 25 25 23 23 22 21 20 19 18 17 17 16 14 14 14 14 15 15 14 14 14 14 14 15 17 17 17 17 18 19 19 21 24 26 23 22 24 26 26 27 28 26 27 26 25 24 24 24
21 21 22 22 23 23 23 23 24 22 22 21 20 19 18 17 17 16 16 16 15 15 15 14 14 14 13 14 14 14 15 16 17 17 17 19 18 20 20 20 21 24 25 26 27 28 29 30 31 31 28 27 26 26
17 18 20 21 21 21 21 22 22 21 21 20 19 19 18 17 16 15 15 15 16 15 14 15 14 12 13 13 14 14 15 16 15 17 18 18 20 21 20 21 21 21 22 23 25 26 27 28 28 28 30 30 29 29
14 14 16 18 19 20 21 20 22 20 19 18 18 17 17 16 16 15 15 15 15 15 16 15 14 13 12 12 13 14 14 15 15 16 16 19 23 25 22 22 23 24 25 26 27 27 26 27 26 27 28 28 30 29
13 14 13 16 17 18 20 20 21 20 19 18 17 15 14 15 15 15 14 15 14 14 15 15 16 13 12 12 11 12 12 13 15 14 16 17 18 18 17 19 20 22 24 26 27 28 28 30 30 29 28 28 28 30
12 15 14 14 16 18 19 21 21 20 17 17 15 14 14 14 14 15 15 14 14 14 14 14 14 14 12 12 12 11 12 12 14 13 15 16 14 15 18 20 22 24 26 28 29 30 30 29 29 29 27 27 26 22
11 13 14 15 16 18 19 20 22 19 17 15 14 14 13 13 14 15 15 15 14 14 14 14 14 13 12 11 11 10 11 12 12 14 14 15 15 18 21 24 26 28 30 32 33 33 31 29 27 25 24 21 20 20
9 11 13 16 18 19 19 21 21 19 17 14 13 12 12 11 12 12 13 12 12 13 14 13 13 12 11 10 9 9 9 10 11 13 16 16 17 21 25 28 29 31 32 32 31 28 27 26 24 22 20 18 17 18
9 12 15 16 19 21 20 21 21 18 13 13 11 12 12 10 10 11 11 11 13 14 14 12 12 12 11 9 9 8 9 11 12 13 16 19 23 26 28 29 31 32 31 28 24 21 18 16 16 15 15 15 15 15
16 17 16 20 22 22 22 22 19 15 11 11 9 9 11 11 10 11 12 12 13 13 13 12 11 11 11 9 8 9 9 10 10 14 19 21 22 23 21 21 20 17 15 14 14 10 10 9 9 10 10 11 11 12
19 18 20 23 21 22 22 17 16 13 10 9 9 10 9 9 9 11 13 13 14 13 12 12 12 11 9 8 8 7 6 8 13 16 16 17 15 11 8 7 3 2 3 7 8 7 7 7 7 7 7 7 9 10
22 22 23 24 24 20 18 15 13 10 8 9 8 9 10 9 10 12 14 15 14 12 12 11 10 10 8 6 5 3 7 8 11 11 10 9 7 6 3 6 6 6 6 7 7 6 4 3 4 5 6 6 7 8
22 23 24 24 22 19 16 15 11 9 10 10 10 10 11 12 12 12 14 14 13 11 11 9 8 8 7 4 3 4 4 5 5 6 5 6 7 10 12 9 7 6 5 4 2 1 2 4 4 4 5 7 7 8
24 23 23 20 17 15 14 14 13 11 12 12 12 13 13 12 13 14 13 12 10 9 9 10 8 7 6 3 0 2 3 3 3 4 4 5 7 8 9 8 7 5 4 3 2 2 1 3 4 6 7 8 9 9
20 18 16 15 14 13 13 13 13 12 12 12 12 13 12 11 11 11 10 10 9 9 9 8 7 6 3 2 1 2 2 2 2 2 3 4 4 5 5 5 5 4 4 4 5 5 6 8 8 8 9 9 9 9
13 11 11 10 11 11 12 12 13 13 12 13 13 14 12 12 12 11 11 9 7 6 7 8 6 4 3 2 0 1 2 2 2 1 2 3 4 5 5 5 6 6 6 7 8 8 9 8 8 8 9 9 10 10
11 11 13 14 15 14 14 15 14 13 13 13 13 11 11 11 10 12 10 10 9 8 9 9 6 4 4 2 1 1 2 3 3 3 3 4 5 6 7 8 9 9 9 9 10 10 10 10 10 11 11 11 11 11
17 17 16 15 13 13 16 15 13 12 11 11 15 15 16 17 19 15 15 15 14 13 12 10 9 7 5 4 3 3 4 4 4 5 5 6 7 7 9 10 10 10 11 11 11 11 11 12 11 12 12 12 12 11
17 17 16 16 16 15 15 15 16 16 15 18 17 14 14 15 14 15 15 13 12 11 9 7 6 6 5 5 5 4 4 5 6 6 7 7 8 9 9 10 10 10 11 11 11 12 12 12 12 13 13 13 13 14
16 16 16 16 15 14 14 15 16 17 16 14 13 12 12 12 12 11 10 9 8 7 6 5 5 5 5 5 5 6 6 7 7 8 8 10 11 11 12 12 12 11 11 12 12 13 13 14 14 15 15 16 16 17
17 16 15 15 13 12 13 13 13 12 11 11 10 9 9 9 10 9 8 8 8 7 7 6 5 5 5 6 6 7 8 9 9 11 12 13 13 13 13 13 14 15 15 15 16 16 17 17 17 17 18 19 21 21
14 14 15 16 16 16 17 14 12 11 11 9 8 9 8 9 9 9 10 11 11 11 11 10 8 8 7 7 8 8 9 10 10 11 13 12 12 13 13 15 16 17 19 20 20 20 21 21 21 22 22 23 23 24
14 14 15 18 16 15 16 18 15 13 13 14 15 15 15 13 12 11 10 10 10 10 10 10 10 9 9 9 9 10 11 12 14 16 17 17 17 17 19 20 21 22 22 23 23 24 25 26 27 27 28 28 28 27
17 17 18 18 19 18 16 16 17 17 16 15 15 14 13 12 11 10 9 9 10 10 10 10 10 11 12 12 13 14 15 15 17 18 19 21 22 23 24 25 26 27 28 29 29 30 31 31 32 32 32 32 32 31
13 14 15 15 15 14 13 13 13 13 13 13 12 12 11 10 11 12 12 10 10 11 13 13 13 13 15 16 17 18 18 20 21 21 22 24 25 26 27 29 29 30 30 31 32 33 34 34 35 35 35 36 36 34
11 11 10 10 10 10 10 10 10 10 10 10 10 10 9 9 9 9 11 12 12 13 14 15 15 17 19 20 20 20 21 22 23 24 25 26 27 29 30 30 30 31 31 32 33 33 34 34 34 35 36 36 35 35
7 7 7 7 7 7 7 6 6 6 6 7 7 7 7 8 8 9 11 13 15 16 17 18 19 21 22 22 23 23 24 25 27 28 27 29 30 31 31 31 32 32 33 33 33 33 33 33 32 33 32 32 30 30
Wind_Direction
270 267 264 261 259 258 256 255 255 255 256 255 253 249 250 247 247 241 236 238 234 230 232 228 229 229 228 226 227 229 227 222 226 227 229 226 232 228 233 238 233 232 235 234 240 247 242 236 242 250 264 270 276 278
267 264 261 259 256 255 253 253 252 251 251 251 250 248 247 242 242 242 236 238 240 232 232 235 238 234 231 228 230 229 227 227 228 228 228 234 231 233 236 234 234 238 240 242 241 247 243 246 255 263 268 270 274 277
264 261 258 256 254 252 252 250 249 248 248 248 246 245 243 241 238 239 238 239 237 234 232 231 227 228 230 230 228 228 226 231 228 231 235 236 238 240 237 238 242 238 242 244 245 243 253 261 264 270 274 275 275 273
261 258 255 252 251 250 249 247 246 244 243 243 242 240 239 238 235 235 235 236 233 234 233 226 228 238 237 230 224 227 233 233 236 236 236 237 240 240 241 245 246 250 245 247 251 255 261 259 271 276 277 278 276 272
259 256 252 249 248 246 245 244 242 241 238 238 237 236 236 236 233 234 231 229 230 231 232 232 235 231 232 228 226 226 230 234 236 236 236 238 242 244 242 248 247 246 250 251 259 257 261 265 275 276 276 277 275 269
258 254 249 247 247 243 241 240 239 237 234 233 233 233 233 234 232 231 227 226 229 234 232 230 231 229 234 233 229 230 232 234 235 238 240 243 243 245 248 248 250 253 254 257 256 262 265 268 269 272 275 275 270 265
257 252 248 243 241 238 237 234 234 232 230 230 230 230 231 231 230 229 230 226 229 233 229 232 228 229 233 230 229 229 230 233 235 239 241 245 244 245 250 251 251 255 256 255 261 265 266 266 270 274 274 272 269 266
254 251 244 239 236 233 231 229 227 226 225 225 226 226 228 229 231 230 227 230 229 229 227 231 227 224 231 229 230 232 232 233 235 242 243 246 246 247 253 255 257 259 260 261 264 264 267 268 268 268 269 269 266 262
254 248 238 233 230 226 224 221 218 219 219 219 220 221 222 224 224 224 225 224 223 225 228 227 228 223 230 230 233 232 237 239 240 245 246 249 247 248 255 256 257 257 262 266 268 269 270 271 270 268 266 265 264 261
250 239 230 224 222 219 218 214 210 210 209 210 209 215 219 218 217 216 221 220 222 222 224 227 224 225 231 230 230 237 238 245 247 243 251 254 256 255 257 259 261 264 266 268 269 270 271 271 272 271 269 267 263 262
238 228 223 217 214 212 209 205 200 199 200 204 207 212 211 206 212 217 219 219 218 224 221 223 224 226 225 233 234 238 245 248 252 248 257 259 264 253 259 263 265 266 267 267 269 270 270 271 271 271 269 268 266 265
233 220 213 211 207 202 197 195 193 194 197 199 200 202 201 211 214 217 216 218 222 221 217 217 214 221 223 231 237 239 247 248 253 260 260 263 263 263 269 270 271 271 272 272 272 272 272 271 269 266 266 268 268 263
221 207 206 199 193 190 189 188 188 189 185 188 195 198 203 209 211 214 211 216 217 213 211 208 207 214 215 226 233 240 244 248 265 258 262 268 272 275 277 278 278 277 277 274 272 270 270 267 264 261 263 260 258 254
210 195 190 190 189 184 180 179 179 180 183 188 190 192 201 198 208 205 210 208 207 208 199 202 202 209 209 216 227 237 247 257 261 266 273 281 282 285 286 283 281 279 278 274 268 266 264 258 258 257 254 249 252 248
129 159 166 168 168 167 167 168 169 170 171 186 191 196 199 199 200 203 201 199 197 194 195 198 201 207 204 216 222 243 249 262 269 279 292 295 293 291 290 289 285 279 274 266 257 252 250 248 245 242 240 244 243 240
105 120 129 147 152 154 156 156 160 165 169 176 186 192 192 198 193 195 194 192 188 190 191 197 194 200 207 216 228 243 264 270 292 300 300 299 298 298 289 296 296 283 259 236 218 215 220 225 233 235 234 234 234 239
90 100 116 140 138 146 152 156 162 163 173 181 181 189 194 195 194 188 189 186 182 185 187 189 190 192 199 216 231 238 263 297 304 307 310 308 301 311 316 321 339 82 159 182 192 204 208 204 203 211 221 230 239 245
96 101 108 118 126 133 142 148 150 157 168 171 172 169 176 178 173 169 172 170 171 176 176 174 182 189 198 210 206 240 290 302 316 320 345 1 23 40 78 81 94 97 92 116 132 143 155 180 215 241 247 247 250 251
98 102 107 113 113 114 119 132 133 132 145 144 149 146 148 150 154 148 155 159 164 160 167 170 182 183 185 185 229 275 292 320 346 7 22 58 59 67 76 101 102 96 88 92 114 193 250 270 273 262 254 256 260 261
95 99 107 106 102 103 109 114 124 119 121 125 134 138 140 141 143 149 155 161 167 170 173 172 173 173 177 180 241 310 323 340 352 22 55 53 65 67 62 64 64 64 63 55 37 324 296 287 285 282 280 276 272 271
87 93 95 94 94 98 101 110 116 114 115 122 123 135 136 144 150 155 160 159 163 168 170 177 183 188 199 269 297 329 337 349 359 20 37 46 41 34 30 26 18 9 356 346 334 317 298 301 294 286 283 278 276 276
74 88 90 94 93 96 101 109 109 110 112 115 118 123 119 126 129 130 133 143 150 162 172 172 178 194 215 243 8 15 6 5 358 4 3 353 346 347 338 333 336 337 321 314 312 309 308 302 298 293 289 280 279 278
74 82 85 92 97 98 95 104 107 111 113 114 114 109 111 110 107 104 106 121 111 119 139 149 156 160 149 133 75 22 22 12 4 345 338 335 327 331 328 321 320 317 313 310 309 303 303 301 293 288 289 285 285 283
83 85 88 88 96 89 96 100 105 101 101 98 104 110 102 98 107 96 95 98 102 100 107 115 115 105 100 83 59 34 20 9 356 348 337 329 332 326 325 324 324 322 318 311 307 305 302 300 298 291 287 285 281 279
83 82 84 86 94 94 89 91 97 104 97 100 106 97 93 101 96 91 91 91 88 88 87 87 87 73 58 49 35 33 15 1 355 345 346 335 331 329 326 327 326 327 326 321 316 310 306 302 298 294 290 285 283 284
80 78 79 76 81 81 83 91 93 93 97 98 96 100 100 96 90 86 79 70 67 61 55 55 50 41 41 31 22 19 12 2 350 341 341 335 327 322 319 317 317 319 320 321 319 316 310 305 301 296 291 286 283 283
76 74 75 75 78 81 88 88 88 87 88 89 94 98 92 89 81 78 70 60 55 49 48 47 42 36 29 21 10 359 352 348 343 334 329 327 325 322 319 316 314 313 313 312 310 309 308 306 303 300 295 291 287 286
70 68 68 69 76 77 76 80 83 78 77 82 91 91 85 88 84 74 73 69 64 61 57 53 48 39 28 18 11 5 0 356 352 350 348 343 336 330 328 323 318 314 309 306 304 303 301 300 299 298 297 295 293 289
73 76 75 76 79 78 70 70 78 79 82 86 87 87 91 89 88 81 71 61 53 49 44 39 32 24 17 10 3 355 348 342 339 336 333 330 328 326 323 319 316 314 312 308 304 300 299 296 295 294 293 292 290 289
73 81 81 78 76 75 74 75 78 82 82 85 87 89 88 83 75 65 54 48 41 35 27 21 15 11 5 357 350 344 341 339 335 332 328 325 323 320 319 317 315 312 309 306 304 301 299 296 295 293 291 290 289 286
78 79 79 77 75 74 74 75 76 76 78 78 78 78 77 76 68 57 48 39 31 25 15 8 3 358 351 346 341 336 333 332 329 327 326 323 322 321 319 318 316 314 311 309 306 304 302 299 297 295 293 291 289 285
73 70 71 70 69 65 65 70 71 71 71 69 71 72 72 64 54 43 28 21 16 8 2 357 353 348 344 340 337 334 332 329 328 327 325 323 322 321 320 319 318 317 315 313 311 309 307 304 301 299 297 294 291 289
60 55 49 51 53 53 50 48 58 59 58 60 59 51 43 35 35 23 13 6 0 355 352 348 344 341 340 338 335 332 330 327 326 324 322 322 321 322 321 320 320 319 318 317 316 314 313 312 310 308 305 302 300 297